Overview Statistics Trail Chart Weather Telemetry Raw packets
 

This is the latest recevied weather packets stored in our database for station/object SV9TNF-56. If no packets are shown the sender has not sent any weather packets the latest 10 day(s).

<< 53 54 55 56 57 58 59 >>
Time Temp. Humidity Pressure Rain* Wind** Luminosity Snow
1788300508 25.56° C 51% 1011.5 hPa 0 mm 7.6 m/s, 176° - -
1788300208 25.56° C 52% 1011.5 hPa 0 mm 4.92 m/s, 162° - -
1788299908 25.56° C 52% 1011.5 hPa 0 mm 4.92 m/s, 210° - -
1788299608 25.56° C 53% 1011.5 hPa 0 mm 8.05 m/s, 160° - -
1788299308 25.56° C 52% 1011.5 hPa 0 mm 9.83 m/s, 122° - -
1788299008 25° C 53% 1011.9 hPa 0 mm 12.96 m/s, 150° - -
1788298708 25.56° C 55% 1011.9 hPa 0 mm 6.71 m/s, 206° - -
1788298408 26.11° C 50% 1011.9 hPa 0 mm 11.18 m/s, 174° - -
1788298108 25.56° C 50% 1011.9 hPa 0 mm 15.2 m/s, 132° - -
1788297807 25.56° C 51% 1011.5 hPa 0 mm 13.86 m/s, 117° - -
1788297507 25.56° C 51% 1011.5 hPa 0 mm 9.83 m/s, 84° - -
1788297207 25.56° C 51% 1011.9 hPa 0 mm 6.26 m/s, 85° - -
1788296907 25.56° C 50% 1011.5 hPa 0 mm 7.15 m/s, 110° - -
1788296607 26.11° C 47% 1011.5 hPa 0 mm 2.24 m/s, 174° - -
1788296307 26.11° C 46% 1011.5 hPa 0 mm 11.18 m/s, 228° - -
1788296007 26.11° C 45% 1011.5 hPa 0 mm 15.2 m/s, 234° - -
1788295707 26.11° C 47% 1011.5 hPa 0 mm 7.15 m/s, 246° - -
1788295406 26.11° C 47% 1011.9 hPa 0 mm 9.83 m/s, 167° - -
1788295106 26.11° C 46% 1011.5 hPa 0 mm 4.92 m/s, 253° - -
1788294807 26.11° C 45% 1011.5 hPa 0 mm 8.94 m/s, 96° - -
1788294506 26.11° C 45% 1011.5 hPa 0 mm 12.52 m/s, 150° - -
1788294206 26.11° C 44% 1011.5 hPa 0 mm 14.31 m/s, 78° - -
1788293906 26.11° C 45% 1011.5 hPa 0 mm 7.6 m/s, 120° - -
1788293606 26.11° C 44% 1011.5 hPa 0 mm 7.6 m/s, 144° - -
1788293306 26.67° C 40% 1011.5 hPa 0 mm 17.88 m/s, 96° - -

* Rain latest hour (hover to see other rain measurements)
** Current wind speed in m/s (hover to see current wind gust speed)